This is the latest recevied weather packets stored in our database for station/object KE0LFX. If no packets are shown the sender has not sent any weather packets the latest 1 day(s).
| Time | Temp. | Humidity | Pressure | Rain* | Wind** | Luminosity | Snow |
|---|---|---|---|---|---|---|---|
| 1777994849 | 11.11° C | 44% | 1015.2 hPa | 0 mm | 0 m/s | 142 W/m² | - |
| 1777994546 | 11.11° C | 44% | 1015.2 hPa | 0 mm | 0.45 m/s, 312° | 181 W/m² | - |
| 1777994240 | 11.11° C | 45% | 1015.1 hPa | 0 mm | 0.89 m/s, 325° | 195 W/m² | - |
| 1777993938 | 10.56° C | 45% | 1015.2 hPa | 0 mm | 0.45 m/s, 304° | 184 W/m² | - |
| 1777993634 | 10.56° C | 47% | 1015 hPa | 0 mm | 0.45 m/s, 314° | 187 W/m² | - |
| 1777993332 | 10.56° C | 48% | 1015.1 hPa | 0 mm | 0.89 m/s, 291° | 180 W/m² | - |
| 1777993031 | 10.56° C | 46% | 1015 hPa | 0 mm | 1.79 m/s, 263° | 187 W/m² | - |
| 1777992731 | 10.56° C | 47% | 1015.1 hPa | 0 mm | 0.89 m/s, 349° | 169 W/m² | - |
| 1777992428 | 10.56° C | 48% | 1014.9 hPa | 0 mm | 0 m/s | 167 W/m² | - |
| 1777992126 | 10° C | 49% | 1015.1 hPa | 0 mm | 1.34 m/s, 10° | 156 W/m² | - |
| 1777991823 | 10.56° C | 48% | 1015.1 hPa | 0 mm | 0.89 m/s, 45° | 153 W/m² | - |
| 1777991520 | 10.56° C | 49% | 1015 hPa | 0 mm | 1.79 m/s, 6° | 144 W/m² | - |
| 1777991217 | 10.56° C | 49% | 1014.8 hPa | 0 mm | 1.34 m/s, 8° | 133 W/m² | - |
| 1777990914 | 10° C | 51% | 1014.9 hPa | 0 mm | 0.45 m/s, 7° | 125 W/m² | - |
| 1777990612 | 10.56° C | 50% | 1014.7 hPa | 0 mm | 1.34 m/s, 39° | 121 W/m² | - |
| 1777990308 | 10° C | 51% | 1014.7 hPa | 0 mm | 0.45 m/s, 15° | 95 W/m² | - |
| 1777990005 | 10° C | 52% | 1014.7 hPa | 0 mm | 0.45 m/s, 346° | 99 W/m² | - |
| 1777989702 | 10° C | 51% | 1014.4 hPa | 0 mm | 1.34 m/s, 334° | 87 W/m² | - |
| 1777989398 | 10° C | 50% | 1014.5 hPa | 0 mm | 1.34 m/s, 41° | 121 W/m² | - |
| 1777989095 | 10° C | 50% | 1014.5 hPa | 0 mm | 0.45 m/s, 326° | 134 W/m² | - |
| 1777988791 | 9.44° C | 52% | 1014.7 hPa | 0 mm | 1.34 m/s, 16° | 119 W/m² | - |
| 1777988488 | 9.44° C | 51% | 1014.6 hPa | 0 mm | 0.89 m/s, 338° | 102 W/m² | - |
| 1777988185 | 9.44° C | 51% | 1014.7 hPa | 0 mm | 1.34 m/s, 48° | 91 W/m² | - |
| 1777987881 | 9.44° C | 50% | 1014.8 hPa | 0 mm | 1.34 m/s, 302° | 79 W/m² | - |
| 1777987577 | 9.44° C | 51% | 1014.8 hPa | 0 mm | 0.89 m/s, 333° | 70 W/m² | - |
* Rain latest hour (hover to see other rain measurements)
** Current wind speed in m/s (hover to see current wind gust speed)